Regional Weather Roundup
Issued by NWS Tiyan, Guam

Home | Current Version | Previous Version | Text Only | Print | Product List | Glossary On
Versions: 1 2 3 4 5 6 7 8 9 10 11 12 13 14 15 16 17 18 19 20 21 22 23 24 25 26 27 28 29 30 31 32 33 34 35 36 37 38 39 40 41 42 43 44 45 46 47 48 49 50
000
ASGM40 PGUM 161012
RWRGUM
WEATHER ROUNDUP FOR THE MARIANAS
NATIONAL WEATHER SERVICE TIYAN GU
800 PM CHST TUE JAN 16 2018

GUZ001>004-161100-
MARIANA ISLANDS-

CITY           SKY/WX    TMP DP  RH WIND       PRES   REMARKS
GUAM AIRPORT   CLEAR     81  70  69 E12       29.85R
ANDERSEN AFB   CLEAR     77  68  73 E14       29.85R
ROTA AIRPORT   PTCLDY    77  68  73 E10       29.85R
TINIAN AP      PTCLDY    79  72  78 E12       29.84R
SAIPAN AP      PTCLDY    79  70  73 E14       29.85R

$$




USA.gov is the U.S. government's official web portal to all federal, state and local government web resources and services.